Location: El Bakhil
(32.7726°N, 5.5387°W)
Time: 17:45:00
(UTC+00:00)

DIWATA 2B (PO-101) - Pass Details

Date: 03 August 2021
Orbit: 584 x 600 km, 97.9° (Epoch: 19 September)

Event Time Altitude Azimuth Distance (km) Brightness Sun altitude
Exits shadow 01:56:01 13° 351° (N) 1,744 ? -35.6°
Drops below altitude 10° 01:56:30 10° 351° (N) 1,943 ? -35.5°
Sets 01:58:41 0° 350° (N) 2,850 ? -35.3°
